Temp
20 19 17 17 18 18 17 17 18 20 23 21 21 21 21 23 22 22 24 25 25 25 27 28 29 31 30 25 24 22 23 23 24 25 26 26 25 26 26 25 25 24 24 24
19 18 20 21 20 19 18 17 18 20 22 21 22 21 21 22 23 23 22 23 25 25 25 27 28 30 30 27 25 24 23 23 23 26 26 26 27 26 26 25 25 24 24 24
18 20 22 22 20 19 19 18 19 19 21 21 20 20 20 22 23 23 24 23 24 25 26 26 28 27 28 25 26 26 26 24 25 27 26 26 26 25 24 24 24 24 23 23
19 20 20 20 19 19 17 20 20 20 19 16 20 16 19 20 21 22 23 23 23 24 25 27 28 27 27 25 25 27 26 26 26 26 26 25 25 24 23 23 23 23 22 22
18 19 18 18 19 20 19 21 19 19 19 17 18 15 19 20 20 21 22 23 24 24 25 26 27 29 28 25 23 24 25 25 26 25 24 24 24 23 23 23 22 21 20 21
18 20 20 20 20 21 21 20 19 18 17 15 18 17 18 19 20 22 22 23 24 25 25 26 26 29 28 25 23 24 24 24 24 24 24 22 23 23 21 20 20 20 19 19
17 18 19 21 20 20 18 15 13 14 13 15 19 16 17 18 19 20 22 23 24 25 25 26 26 28 27 24 23 23 23 22 23 23 23 22 22 23 22 21 19 19 18 17
13 14 19 19 18 16 14 16 13 14 14 14 18 14 15 19 20 20 21 23 24 24 25 26 23 24 25 24 23 22 22 22 23 24 22 23 22 22 21 20 19 18 17 17
13 14 16 18 19 18 17 13 15 13 13 14 16 18 20 21 20 21 22 23 24 24 25 24 23 23 25 24 23 23 21 22 22 23 22 20 20 21 18 19 18 18 17 17
13 12 16 17 18 18 17 17 13 13 14 14 16 18 18 18 20 20 21 22 24 25 25 25 24 23 25 24 23 23 21 22 22 22 22 22 21 20 19 19 17 17 16 16
12 11 13 14 15 15 16 14 14 14 14 14 14 15 19 17 18 17 18 22 21 22 22 26 26 24 25 24 23 22 21 21 21 23 21 19 19 19 17 17 16 17 16 15
12 10 11 13 16 17 16 15 15 13 14 13 14 14 18 17 17 18 18 21 20 20 20 26 27 25 24 24 22 21 21 21 21 19 18 18 17 16 16 15 16 16 15 15
10 10 11 12 14 14 13 14 14 13 13 13 14 14 18 17 18 17 17 18 18 18 21 25 27 23 24 24 22 22 21 21 18 17 17 16 15 15 14 15 15 15 15 15
12 8 10 11 13 13 12 14 15 13 12 14 13 15 16 16 16 18 18 17 17 19 20 22 23 24 23 22 21 22 20 18 17 16 16 15 14 14 14 15 15 15 15 14
10 10 10 11 12 13 13 14 14 14 14 12 15 16 16 16 16 17 18 17 17 19 18 21 20 18 18 19 19 20 19 17 16 15 15 14 14 14 14 15 14 14 14 13
9 10 10 11 14 15 14 14 15 17 16 16 17 16 17 17 16 18 17 17 17 15 18 17 17 17 17 16 16 15 15 15 14 14 14 14 14 14 14 14 13 12 12 11
7 8 10 11 14 14 13 12 13 14 16 16 16 17 17 15 16 14 15 15 15 16 18 16 16 16 16 16 15 14 14 13 13 14 14 14 14 14 13 12 11 11 10 10
8 8 10 10 11 13 13 13 12 12 14 13 12 12 14 13 13 14 13 12 14 14 17 17 17 16 16 15 14 14 14 13 12 13 14 14 13 13 12 11 11 10 9 9
10 9 10 11 12 13 13 11 9 11 12 11 11 11 12 13 14 13 12 14 14 15 16 16 16 15 15 14 14 13 13 13 13 14 14 13 12 12 11 11 10 9 8 8
12 11 10 11 13 14 9 9 10 10 12 10 9 10 9 11 13 13 11 14 14 14 14 15 15 14 14 14 13 13 13 14 14 14 13 13 12 11 11 10 9 9 9 8
10 10 10 11 12 11 9 8 10 12 11 8 8 9 9 12 11 11 12 13 13 14 14 15 15 14 14 13 14 14 14 14 14 13 13 12 11 11 10 10 9 9 9 8
9 8 10 9 11 10 8 8 8 8 7 10 10 11 10 10 11 11 12 13 13 14 14 15 14 14 14 15 15 14 14 13 13 12 12 11 11 11 11 11 11 10 9 8
9 8 8 7 8 8 8 7 7 7 9 10 10 10 10 10 11 11 12 12 13 14 14 15 14 14 14 13 13 12 12 12 12 11 11 10 10 10 10 10 10 10 10 8
9 7 7 8 8 8 7 6 7 7 9 9 9 9 10 10 10 10 11 12 12 13 14 14 13 13 12 12 12 12 12 11 8 7 7 7 7 8 9 10 10 8 8 7
6 6 7 7 8 6 7 6 6 8 9 8 8 8 9 10 9 10 11 12 12 13 13 13 12 12 12 12 12 9 8 8 6 6 5 5 6 6 7 7 7 7 7 8
5 6 7 7 6 6 6 6 6 7 8 8 8 8 8 9 9 9 10 11 12 12 12 12 12 11 11 10 8 8 8 7 6 5 4 4 4 4 4 5 5 6 6 6
Height
748 756 765 762 758 754 760 761 755 736 720 726 727 729 721 712 712 713 702 696 696 694 686 687 687 687 690 690 693 703 697 712 716 713 714 734 746 756 759 766 772 777 780 783
750 753 742 738 743 753 750 756 748 733 719 721 717 719 717 712 708 704 704 698 691 692 687 683 685 685 688 690 688 693 702 699 707 708 732 729 739 750 758 764 772 777 780 783
752 742 730 729 736 744 742 745 740 736 721 712 721 721 716 704 699 694 693 694 691 685 687 682 681 682 686 690 691 691 689 713 693 709 733 725 738 749 755 762 773 776 779 781
742 732 734 734 736 732 742 727 724 726 734 742 725 742 717 708 705 698 692 689 688 686 682 682 675 677 680 687 690 694 697 690 704 713 715 728 738 747 754 762 768 773 778 782
739 738 738 736 731 725 728 720 727 725 728 734 725 746 691 706 703 695 686 682 679 677 676 676 674 672 675 682 687 693 703 707 706 711 718 727 732 745 757 758 764 772 778 784
733 723 723 720 716 714 711 718 721 726 733 740 712 730 689 704 693 683 678 674 671 667 667 666 666 666 669 678 684 689 697 706 710 715 723 730 714 736 752 755 758 769 778 785
735 727 713 709 710 710 720 738 754 749 753 729 709 725 695 692 683 674 671 666 662 660 661 660 658 658 662 672 679 684 692 701 709 713 724 726 716 738 742 750 758 773 781 787
754 746 719 717 722 732 737 727 748 739 736 727 708 723 697 674 664 664 661 654 651 652 651 652 652 648 656 663 673 678 686 696 703 711 721 725 726 740 747 746 759 768 784 788
755 744 726 719 713 720 721 738 726 734 729 728 709 685 669 662 664 659 648 644 645 644 642 645 642 646 651 658 666 673 681 690 697 708 717 727 737 742 749 751 760 768 781 789
758 750 732 722 716 709 713 718 738 734 726 718 697 682 682 675 666 657 650 642 639 635 638 633 636 644 650 656 663 669 676 682 695 708 718 728 734 740 747 752 762 773 783 789
758 760 739 735 722 718 718 725 724 721 724 719 710 696 665 671 666 669 656 641 641 640 642 624 626 636 646 654 660 663 676 681 692 705 719 727 733 741 747 757 763 769 783 789
756 758 748 730 707 707 710 713 713 723 713 708 709 692 664 668 666 658 655 635 637 647 642 629 616 628 642 647 654 661 672 685 696 708 720 730 737 745 750 761 766 771 787 790
759 754 743 725 714 711 713 711 712 714 709 703 705 687 659 661 658 655 654 638 640 644 640 624 610 627 634 642 651 661 672 688 695 710 719 729 739 745 752 762 770 787 789 797
747 761 747 738 722 715 716 708 703 712 709 696 695 676 665 664 661 653 650 650 651 649 633 613 611 621 628 642 654 661 676 686 699 705 717 726 740 746 755 768 781 787 794 799
747 745 741 728 715 710 705 698 695 694 695 701 682 671 653 661 655 655 649 656 662 639 629 604 615 629 637 648 657 668 680 693 693 708 715 729 742 755 765 777 780 788 796 805
747 741 735 720 698 689 693 687 684 673 674 677 671 661 641 649 650 643 649 654 648 641 630 631 619 633 646 659 673 681 696 702 684 688 721 737 749 761 771 776 784 790 800 803
751 747 736 717 693 688 693 699 687 677 668 669 670 654 642 652 652 655 645 639 642 638 637 640 630 636 651 664 677 697 696 690 700 712 734 747 758 760 769 781 791 797 798 803
747 747 737 724 710 698 692 695 694 689 679 680 677 667 659 659 660 660 662 651 641 637 635 642 638 649 664 673 680 689 706 706 717 739 746 754 760 759 774 789 797 799 800 804
736 740 732 721 708 696 692 706 711 700 686 689 683 673 664 664 657 652 648 638 639 629 638 646 649 659 672 682 689 701 721 727 735 748 754 763 760 773 787 796 798 797 798 806
729 725 734 723 705 691 720 717 702 698 680 690 692 683 680 666 668 662 654 640 632 641 642 652 659 669 680 694 703 717 727 735 743 751 758 766 781 788 790 794 792 799 802 808
734 731 728 717 705 707 723 719 697 685 693 694 691 682 682 668 671 665 658 648 644 650 650 661 664 676 687 698 704 724 728 741 749 756 766 782 790 792 793 793 795 798 805 813
744 750 733 734 712 716 726 720 723 719 704 687 676 667 674 674 671 666 657 647 659 654 660 666 675 689 699 707 713 725 739 753 761 770 779 790 794 792 788 786 796 807 813 822
744 753 753 752 736 733 735 731 726 717 700 690 681 678 675 677 669 659 660 666 658 665 670 680 687 700 716 722 726 732 749 759 768 776 786 787 782 782 788 800 806 814 823 828
747 753 751 746 735 734 732 730 723 712 702 695 688 685 684 685 682 682 679 675 668 673 683 690 701 711 721 731 738 743 751 759 766 773 780 782 786 793 800 807 814 820 826 830
757 757 750 744 738 737 729 730 724 715 706 701 695 691 692 688 682 686 686 685 683 691 694 700 710 721 732 741 749 756 760 768 772 776 782 789 796 801 806 814 821 826 831 832
760 755 750 742 748 747 737 732 726 718 711 708 703 697 694 690 694 692 695 699 699 703 709 714 720 729 740 748 754 762 768 771 774 781 791 798 803 808 815 821 828 834 836 835
Wind_Speed
13 9 8 14 15 19 9 18 20 20 17 4 7 7 10 14 14 10 18 17 15 15 20 24 25 23 6 23 36 46 39 37 44 37 38 30 29 30 27 31 25 23 19 15
10 11 11 17 15 12 19 17 23 22 15 14 12 15 14 17 16 13 8 12 17 15 13 18 20 23 17 30 27 28 35 38 31 37 29 30 29 20 28 29 26 22 17 13
11 13 17 16 13 17 16 16 15 18 15 16 12 14 11 12 12 17 16 11 11 17 20 19 19 19 17 32 35 33 27 38 25 40 31 25 28 23 24 29 23 17 16 13
10 9 16 15 16 7 14 12 19 17 14 12 3 14 17 10 14 13 15 16 13 13 12 21 22 15 20 29 39 41 36 29 27 34 33 30 27 21 25 30 25 21 15 13
14 12 15 19 19 16 20 16 8 13 12 12 10 5 28 5 14 20 17 17 19 17 15 17 21 28 26 28 35 40 41 41 41 44 36 38 17 29 32 30 25 23 21 17
17 16 17 16 18 17 18 18 10 12 7 12 11 7 26 13 17 16 16 16 18 18 20 19 18 32 28 29 36 41 44 40 42 42 42 33 28 38 32 33 32 26 22 19
15 14 18 14 17 14 10 4 3 3 3 11 3 7 18 9 18 20 18 20 16 20 20 19 18 18 24 31 34 36 37 32 34 36 33 30 36 32 37 35 32 27 23 21
2 6 11 16 8 2 13 3 4 6 4 4 2 7 10 15 23 21 24 19 21 21 19 21 11 8 24 36 36 36 36 34 41 38 33 40 39 31 33 37 34 29 26 24
5 5 21 20 15 7 2 3 3 6 8 8 8 16 16 6 7 18 16 20 18 13 17 17 10 9 31 36 39 38 38 38 41 40 32 35 35 32 30 37 36 35 28 23
3 11 9 16 12 9 10 5 4 3 5 5 6 7 2 6 6 12 15 11 9 15 17 17 8 9 27 37 39 40 42 43 42 37 36 32 30 36 40 40 37 34 29 26
5 6 9 9 7 12 5 6 5 7 7 5 3 4 1 6 7 9 14 9 6 16 9 15 15 10 30 35 36 39 37 40 39 36 34 38 40 42 40 40 39 38 31 27
2 4 6 10 22 14 17 16 13 6 5 1 1 7 13 4 7 8 16 3 6 16 20 20 24 14 26 33 37 35 37 37 35 40 42 42 40 39 41 39 38 35 32 29
3 4 5 5 3 1 3 2 10 9 11 13 8 7 4 9 9 7 11 11 10 15 23 18 29 11 22 30 31 32 37 36 44 43 42 39 37 40 42 41 39 35 34 30
13 2 7 8 17 14 19 17 15 6 4 5 7 16 11 7 10 7 7 7 10 20 24 17 16 20 21 26 23 29 36 43 44 47 43 42 39 41 44 44 39 36 32 30
5 5 7 18 22 21 23 22 20 17 13 9 14 17 18 6 11 3 3 9 11 16 18 10 17 12 13 15 20 28 32 38 48 44 45 44 43 41 44 41 40 36 32 27
5 4 4 16 19 14 18 17 17 19 16 14 17 21 18 5 7 8 10 2 7 12 2 1 24 25 22 28 31 37 32 28 45 48 45 43 44 41 41 43 40 37 32 30
3 2 3 7 12 20 2 12 10 14 10 11 11 17 15 3 5 7 9 10 7 6 8 7 19 25 24 37 38 26 40 44 43 38 42 42 39 41 40 39 37 36 34 33
4 2 3 7 10 3 2 17 12 15 10 10 12 17 13 6 3 4 3 10 7 6 12 14 19 21 34 40 45 40 37 45 36 33 35 36 40 42 39 36 34 34 35 35
4 2 3 3 5 6 4 14 12 9 11 10 11 15 19 8 5 4 11 3 7 8 12 16 28 37 40 44 47 47 35 39 36 33 33 33 39 39 35 33 32 34 37 35
6 5 3 3 4 3 3 21 21 17 5 13 17 19 19 19 3 2 11 2 14 3 19 20 36 41 43 47 48 44 37 37 35 35 36 36 35 35 33 34 37 37 38 38
5 3 3 5 4 3 9 20 19 3 6 23 22 21 19 7 1 4 4 8 10 14 24 34 40 35 39 47 49 39 37 34 37 39 38 35 34 34 34 36 37 39 39 39
3 4 3 4 3 4 19 9 6 9 23 16 9 5 12 6 2 3 7 14 1 18 25 36 33 36 38 43 48 41 39 41 42 41 39 35 34 35 38 42 39 38 37 33
1 1 2 2 4 8 12 7 12 16 15 9 9 8 6 6 6 11 11 5 12 19 24 37 38 41 40 42 43 44 42 44 43 40 36 33 36 35 32 31 31 30 27 27
1 2 2 4 0 9 10 12 14 17 8 9 9 9 8 8 13 10 8 5 18 16 24 39 39 37 38 42 42 42 43 40 40 40 39 41 43 43 41 41 38 36 34 31
0 4 3 5 5 10 3 12 16 14 8 9 10 9 8 12 15 11 10 10 18 20 30 35 36 37 38 41 40 36 43 44 42 40 41 42 44 46 46 41 36 34 28 28
1 3 2 2 5 4 10 13 16 10 8 8 8 11 11 14 14 14 9 14 21 25 32 34 35 37 36 35 39 39 39 41 42 38 35 35 37 39 41 44 42 35 32 33
Wind_Direction
257 261 214 249 254 259 297 307 287 290 292 243 238 280 282 286 294 288 251 248 248 249 257 267 270 270 199 174 158 178 181 180 164 161 155 169 174 185 188 185 187 186 188 193
275 255 236 243 251 270 280 242 265 280 282 287 297 240 260 269 264 269 250 260 252 245 266 257 255 255 201 167 179 184 164 168 172 153 161 174 173 180 168 177 179 178 179 187
290 286 289 287 229 243 255 259 278 274 284 288 304 289 252 253 244 266 265 260 258 237 233 256 244 239 216 170 173 188 196 166 164 160 168 167 175 161 150 159 160 161 168 164
267 313 319 307 291 282 278 273 263 270 303 280 68 285 276 255 276 271 264 253 251 250 240 226 242 226 214 177 171 178 185 184 173 177 179 174 183 151 150 148 143 145 152 142
277 287 285 281 279 274 274 281 305 289 271 290 245 257 269 232 250 246 250 248 244 242 245 233 222 225 217 180 164 164 172 178 186 192 179 172 183 146 144 141 132 130 127 135
291 296 271 262 271 270 266 265 248 263 266 264 267 244 270 252 253 259 255 251 245 245 243 237 217 209 201 172 162 164 170 178 189 192 178 177 150 141 134 136 129 131 130 127
302 289 273 295 268 250 304 66 296 267 213 250 272 244 260 278 269 258 248 249 248 242 236 248 220 203 187 163 166 166 168 170 180 183 175 161 147 146 146 143 136 132 126 126
264 332 21 354 4 307 310 197 228 255 212 265 327 232 250 233 251 260 249 250 241 256 225 242 210 200 170 166 169 168 165 167 173 177 160 161 162 172 157 146 138 125 136 134
331 267 334 324 315 238 236 295 212 274 250 265 240 262 281 311 290 308 243 244 228 257 221 224 197 149 171 167 170 170 165 170 169 170 161 157 162 154 131 131 137 140 141 136
327 293 279 299 322 288 210 268 264 213 275 223 239 269 199 289 344 342 322 270 237 257 247 225 205 151 176 171 172 170 171 168 168 168 160 148 150 143 138 142 135 139 140 137
268 224 292 307 247 264 257 230 256 263 239 268 298 252 99 331 353 314 316 256 295 301 303 224 224 190 180 177 177 174 168 164 167 159 152 141 138 139 136 141 143 139 139 133
314 274 277 263 272 275 265 274 254 258 246 213 221 255 243 268 315 346 329 281 20 333 333 232 228 200 182 180 178 168 157 162 153 143 136 134 133 131 130 130 134 129 134 122
210 231 286 287 20 194 110 267 290 298 249 256 266 265 359 3 337 349 328 357 350 337 308 251 216 176 183 181 171 156 153 146 134 139 130 126 125 122 122 125 125 132 125 127
250 243 226 268 272 292 292 286 279 223 269 297 268 283 295 307 292 330 359 31 340 289 307 270 190 175 182 164 157 155 140 138 141 131 129 122 121 118 120 126 130 125 127 126
180 251 225 256 267 270 267 273 269 259 248 254 284 286 287 251 276 352 338 49 312 300 316 137 129 111 112 108 101 126 130 148 133 127 121 118 117 120 124 128 124 124 122 124
167 259 290 285 285 271 276 279 278 264 250 248 263 274 278 262 236 351 22 181 313 346 129 255 111 108 101 95 97 96 102 124 107 106 113 118 122 124 123 118 118 118 122 117
160 234 272 277 312 307 169 353 351 343 290 307 267 267 290 74 24 22 345 335 352 346 145 147 112 112 109 108 104 113 105 91 98 102 118 121 125 115 111 115 117 121 115 109
163 267 281 287 312 357 105 27 354 335 45 22 346 334 338 6 53 63 334 262 261 145 153 125 113 111 115 114 109 99 104 100 104 114 114 117 119 109 112 117 118 113 109 101
174 236 277 280 307 281 10 354 337 336 304 33 338 326 321 326 337 351 343 78 70 148 132 125 116 112 114 115 113 112 117 124 123 123 119 118 112 117 123 123 118 113 108 100
316 294 229 321 278 316 11 334 319 313 250 4 338 313 312 315 27 316 312 314 55 158 105 116 113 112 116 123 121 129 127 127 124 123 118 115 124 126 122 119 113 113 108 100
321 335 267 288 276 98 3 340 318 355 321 312 299 286 282 274 339 289 303 90 66 126 115 112 112 111 116 122 123 124 120 119 120 117 118 123 125 123 120 116 114 110 106 99
327 329 347 329 300 338 3 346 3 297 299 304 305 355 98 123 92 77 66 69 303 115 114 108 107 112 118 121 119 116 117 120 118 118 119 121 121 119 117 112 111 114 112 107
293 110 280 257 281 339 344 323 314 309 314 331 344 29 73 97 79 45 55 105 123 106 108 108 107 108 112 114 116 115 118 119 119 119 119 111 110 109 110 117 119 117 113 101
336 78 251 292 225 333 316 332 324 324 344 351 2 35 70 92 89 75 76 66 86 94 103 106 105 104 106 109 111 113 117 117 112 105 104 103 100 100 103 104 106 103 103 102
43 315 290 260 299 322 310 330 326 331 355 19 21 31 64 78 62 68 72 98 94 98 99 101 105 106 109 112 113 108 112 115 108 103 101 99 98 97 95 93 93 94 95 101
252 261 265 290 353 283 289 318 318 332 22 17 33 42 39 60 67 65 74 92 100 101 103 100 99 103 107 101 103 108 112 113 110 106 105 105 103 99 98 97 93 91 95 94